Weather History for Tahlequah, OK

Change the Weather History Date:

Monday, November 5, 2012

  Actual Average (KMKO) Record (KMKO)
Temperature  
Mean Temperature 50 °F -  
Max Temperature 60 °F 61 °F 82 °F (2005)
Min Temperature 39 °F 43 °F 32 °F (2010)
Degree Days  
Heating Degree Days 16    
Moisture  
Dew Point 41 °F    
Average Humidity 73    
Maximum Humidity 93    
Minimum Humidity 51    
Precipitation  
Precipitation 0.00 in - - ()
Sea Level Pressure  
Sea Level Pressure 30.06 in    
Wind  
Wind Speed 4 mph (NNW)    
Max Wind Speed 17 mph    
Max Gust Speed 25 mph    
Visibility 10 miles    
Events      
Averages and records for this station are not official NWS values.
T = Trace of Precipitation, MM = Missing Value Source: NWS Daily Summary

Daily Weather History Graph

Daily Weather History Graph

Search for Another Location

Airport:

Trip Planner

Search our weather history database for the weather conditions in past years. The results will help you decide how hot, cold, wet, or windy it might be!

Date:

Astronomy

Nov. 05, 2012 Rise Set
Actual Time 6:46 AM CST 5:19 PM CST
Civil Twilight 6:20 AM CST 5:46 PM CST
Nautical Twilight 5:49 AM CST 6:17 PM CST
Astronomical Twilight 5:19 AM CST 6:47 PM CST
Moon 10:58 PM CST (11/5) 12:06 PM CST (11/5)
Length of Visible Light 11h 26m
Length of Day
10h 33m
Waning Gibbous, 62% of the Moon is Illuminated
Nov 5
Waning Gibbous
Nov 6
Last Quarter
Nov 13
New
Nov 20
First Quarter
Nov 28
Full

Hourly Weather History & Observations

Time (CST) Temp. Windchill Dew Point Humidity Pressure Visibility Wind Dir Wind Speed Gust Speed Precip Events Conditions
12:15 AM 48.2 °F - 41.0 °F 76% 30.09 in 10.0 mi Calm Calm - N/A   Clear
12:35 AM 48.2 °F - 41.0 °F 76% 30.09 in 10.0 mi Calm Calm - N/A   Clear
12:55 AM 46.4 °F - 41.0 °F 81% 30.08 in 10.0 mi Calm Calm - N/A   Clear
1:15 AM 48.2 °F - 41.0 °F 76% 30.07 in 10.0 mi Calm Calm - N/A   Clear
1:35 AM 50.0 °F - 42.8 °F 76% 30.08 in 10.0 mi Calm Calm - N/A   Clear
1:55 AM 48.2 °F - 42.8 °F 82% 30.07 in 10.0 mi Calm Calm - N/A   Clear
2:15 AM 46.4 °F - 42.8 °F 87% 30.08 in 10.0 mi Calm Calm - N/A   Clear
2:35 AM 50.0 °F - 42.8 °F 76% 30.09 in 10.0 mi Calm Calm - N/A   Clear
2:55 AM 48.2 °F - 42.8 °F 82% 30.07 in 10.0 mi Calm Calm - N/A   Clear
3:15 AM 48.2 °F - 42.8 °F 82% 30.07 in 10.0 mi Calm Calm - N/A   Clear
3:35 AM 48.2 °F - 42.8 °F 82% 30.06 in 10.0 mi Calm Calm - N/A   Clear
3:55 AM 48.2 °F - 42.8 °F 82% 30.04 in 10.0 mi Calm Calm - N/A   Clear
4:15 AM 46.4 °F - 42.8 °F 87% 30.05 in 10.0 mi Calm Calm - N/A   Clear
4:35 AM 48.2 °F - 42.8 °F 82% 30.04 in 10.0 mi Calm Calm - N/A   Clear
4:55 AM 46.4 °F - 42.8 °F 87% 30.04 in 10.0 mi Calm Calm - N/A   Clear
5:15 AM 46.4 °F - 42.8 °F 87% 30.04 in 10.0 mi Calm Calm - N/A   Clear
5:35 AM 46.4 °F - 42.8 °F 87% 30.03 in 10.0 mi Calm Calm - N/A   Clear
5:55 AM 46.4 °F - 42.8 °F 87% 30.03 in 10.0 mi Calm Calm - N/A   Clear
6:15 AM 46.4 °F - 42.8 °F 87% 30.03 in 10.0 mi Calm Calm - N/A   Scattered Clouds
6:35 AM 46.4 °F - 42.8 °F 87% 30.03 in 10.0 mi Calm Calm - N/A   Clear
6:55 AM 44.6 °F - 42.8 °F 93% 30.04 in 10.0 mi Calm Calm - N/A   Clear
7:15 AM 46.4 °F - 42.8 °F 87% 30.04 in 10.0 mi Calm Calm - N/A   Scattered Clouds
7:35 AM 46.4 °F - 42.8 °F 87% 30.04 in 10.0 mi Calm Calm - N/A   Scattered Clouds
7:55 AM 48.2 °F - 44.6 °F 87% 30.04 in 10.0 mi Calm Calm - N/A   Clear
8:15 AM 50.0 °F - 44.6 °F 82% 30.04 in 10.0 mi Calm Calm - N/A   Clear
8:35 AM 51.8 °F - 46.4 °F 82% 30.04 in 10.0 mi Calm Calm - N/A   Clear
8:55 AM 53.6 °F - 46.4 °F 77% 30.04 in 10.0 mi WSW 3.5 mph - N/A   Clear
9:15 AM 55.4 °F - 46.4 °F 72% 30.04 in 10.0 mi WNW 4.6 mph - N/A   Clear
9:35 AM 57.2 °F - 46.4 °F 67% 30.04 in 10.0 mi NW 10.4 mph - N/A   Clear
9:55 AM 59.0 °F - 44.6 °F 59% 30.04 in 10.0 mi NW 12.7 mph 17.3 mph N/A   Clear
10:15 AM 59.0 °F - 44.6 °F 59% 30.04 in 10.0 mi NNW 10.4 mph 17.3 mph N/A   Clear
10:35 AM 60.8 °F - 44.6 °F 55% 30.04 in 10.0 mi NNW 12.7 mph - N/A   Clear
10:55 AM 60.8 °F - 42.8 °F 52% 30.04 in 10.0 mi NW 15.0 mph 19.6 mph N/A   Clear
11:15 AM 60.8 °F - 42.8 °F 52% 30.04 in 10.0 mi NNW 10.4 mph 17.3 mph N/A   Clear
11:35 AM 60.8 °F - 42.8 °F 52% 30.04 in 10.0 mi NNW 12.7 mph 17.3 mph N/A   Clear
11:55 AM 60.8 °F - 42.8 °F 52% 30.04 in 10.0 mi WNW 15.0 mph 21.9 mph N/A   Clear
12:15 PM 60.8 °F - 42.8 °F 52% 30.03 in 10.0 mi NW 17.3 mph - N/A   Clear
12:35 PM 60.8 °F - 42.8 °F 52% 30.03 in 10.0 mi NNW 15.0 mph 21.9 mph N/A   Scattered Clouds
12:55 PM 60.8 °F - 42.8 °F 52% 30.02 in 10.0 mi NNW 16.1 mph 24.2 mph N/A   Scattered Clouds
1:15 PM 60.8 °F - 42.8 °F 52% 30.02 in 10.0 mi North 13.8 mph 23.0 mph N/A   Scattered Clouds
1:35 PM 59.0 °F - 42.8 °F 55% 30.02 in 10.0 mi NNW 12.7 mph 25.3 mph N/A   Scattered Clouds
1:55 PM 59.0 °F - 41.0 °F 51% 30.02 in 10.0 mi NNW 16.1 mph 25.3 mph N/A   Clear
2:15 PM 59.0 °F - 41.0 °F 51% 30.02 in 10.0 mi NW 15.0 mph 21.9 mph N/A   Clear
2:35 PM 57.2 °F - 41.0 °F 55% 30.03 in 10.0 mi NNW 16.1 mph 21.9 mph N/A   Scattered Clouds
2:55 PM 55.4 °F - 41.0 °F 58% 30.03 in 10.0 mi NNW 17.3 mph 21.9 mph N/A   Scattered Clouds
3:15 PM 55.4 °F - 41.0 °F 58% 30.04 in 10.0 mi NW 16.1 mph 21.9 mph N/A   Clear
3:35 PM 53.6 °F - 41.0 °F 62% 30.05 in 10.0 mi NNW 13.8 mph - N/A   Mostly Cloudy
3:55 PM 51.8 °F - 41.0 °F 67% 30.06 in 10.0 mi NNW 15.0 mph 20.7 mph N/A   Mostly Cloudy
4:15 PM 51.8 °F - 41.0 °F 67% 30.06 in 10.0 mi NNW 10.4 mph - N/A   Mostly Cloudy
4:35 PM 51.8 °F - 41.0 °F 67% 30.06 in 10.0 mi NNW 6.9 mph - N/A   Overcast
4:55 PM 51.8 °F - 39.2 °F 62% 30.06 in 10.0 mi NNW 10.4 mph - N/A   Overcast
5:15 PM 51.8 °F - 39.2 °F 62% 30.06 in 10.0 mi NNW 12.7 mph 19.6 mph N/A   Overcast
5:35 PM 50.0 °F - 39.2 °F 66% 30.07 in 10.0 mi NNW 11.5 mph 16.1 mph N/A   Overcast
5:55 PM 50.0 °F - 39.2 °F 66% 30.09 in - NNW 9.2 mph - N/A   Unknown
6:15 PM 50.0 °F - 39.2 °F 66% 30.09 in 10.0 mi NNW 9.2 mph - N/A   Overcast
6:35 PM 48.2 °F - 37.4 °F 66% 30.10 in 10.0 mi NNW 9.2 mph - N/A   Mostly Cloudy
6:55 PM 46.4 °F 42.9 °F 37.4 °F 71% 30.10 in 10.0 mi NNW 6.9 mph - N/A   Scattered Clouds
7:15 PM 46.4 °F 44.3 °F 37.4 °F 71% 30.10 in 10.0 mi NNW 4.6 mph - N/A   Clear
7:35 PM 44.6 °F - 37.4 °F 76% 30.10 in 10.0 mi Calm Calm - N/A   Unknown
7:55 PM 42.8 °F - 37.4 °F 81% 30.09 in 10.0 mi Calm Calm - N/A   Clear
8:15 PM 41.0 °F 39.0 °F 35.6 °F 81% 30.10 in 10.0 mi NW 3.5 mph - N/A   Clear
8:35 PM 41.0 °F 39.0 °F 35.6 °F 81% 30.10 in 10.0 mi NNW 3.5 mph - N/A   Clear
8:55 PM 41.0 °F 38.0 °F 37.4 °F 87% 30.10 in 10.0 mi NNW 4.6 mph - N/A   Clear
9:15 PM 41.0 °F 38.0 °F 37.4 °F 87% 30.11 in 10.0 mi NNW 4.6 mph - N/A   Clear
9:35 PM 41.0 °F - 37.4 °F 87% 30.11 in 10.0 mi Calm Calm - N/A   Clear
9:55 PM 39.2 °F 37.0 °F 35.6 °F 87% 30.12 in 10.0 mi NW 3.5 mph - N/A   Scattered Clouds
10:15 PM 42.8 °F 41.1 °F 37.4 °F 81% 30.12 in 10.0 mi North 3.5 mph - N/A   Mostly Cloudy
10:35 PM 42.8 °F 39.3 °F 39.2 °F 87% 30.11 in 10.0 mi NNW 5.8 mph - N/A   Mostly Cloudy
10:55 PM 44.6 °F 41.4 °F 39.2 °F 81% 30.10 in 10.0 mi NNW 5.8 mph - N/A   Overcast
11:15 PM 42.8 °F 39.3 °F 37.4 °F 81% 30.11 in 10.0 mi NNW 5.8 mph - N/A   Mostly Cloudy
11:35 PM 42.8 °F 39.3 °F 39.2 °F 87% 30.10 in 10.0 mi North 5.8 mph - N/A   Mostly Cloudy
11:55 PM 42.8 °F 40.1 °F 37.4 °F 81% 30.10 in 10.0 mi North 4.6 mph - N/A   Mostly Cloudy